GW3546 Weather Reports


time (UTC)temp
C
wind
direction
speed
KPH
gust
KPH
rain 1hr
cm
rain 24hr
cm
rain mn
cm
humidity
%
barometer
mb
20260503013101 15 240 0.0 6.4 0.00 0.00 0.00 40 1006.9
20260503011609 16 253 0.0 3.2 0.00 0.00 0.00 40 1006.8
20260503011503 16 327 0.0 3.2 0.00 0.00 0.00 40 1006.9
20260503010104 15 274 6.4 14.5 0.00 0.00 0.00 40 1006.8
20260503004603 15 316 6.4 12.9 0.00 0.00 0.00 40 1007.0
20260503003104 15 314 9.7 17.7 0.00 0.00 0.00 40 1007.2
20260503001605 15 294 3.2 11.3 0.00 0.00 0.00 40 1007.3
20260503000058 15 311 3.2 14.5 0.00 0.00 0.00 41 1007.5
20260502234559 15 290 3.2 9.7 0.00 0.00 0.00 42 1007.7
20260502233057 15 309 8.0 12.9 0.00 0.00 0.00 42 1007.6
20260502231559 15 14 9.7 22.5 0.00 0.00 0.00 42 1007.8
20260502230055 16 247 11.3 19.3 0.00 0.00 0.00 40 1007.8
20260502224556 16 18 8.0 16.1 0.00 0.00 0.00 40 1007.9
20260502223052 15 309 1.6 8.0 0.00 0.00 0.00 41 1008.3
20260502221549 14 325 3.2 16.1 0.00 0.00 0.00 44 1008.4
20260502220135 15 17 6.4 17.7 0.00 0.00 0.00 43 1008.5
20260502214549 15 302 0.0 9.7 0.00 0.00 0.00 43 1008.7
20260502213046 15 19 4.8 9.7 0.00 0.00 0.00 44 1008.8
20260502211545 14 324 6.4 16.1 0.00 0.00 0.00 45 1009.0
20260502210049 14 355 14.5 25.7 0.00 0.00 0.00 46 1009.1
20260502204558 14 252 6.4 11.3 0.00 0.00 0.00 43 1009.3
20260502203059 14 294 8.0 16.1 0.00 0.00 0.00 45 1009.3
20260502201545 14 320 4.8 17.7 0.00 0.00 0.00 46 1009.5
20260502200042 14 5 11.3 22.5 0.00 0.00 0.00 45 1009.7
20260502194548 14 92 4.8 12.9 0.00 0.00 0.00 44 1009.7
20260502193040 14 346 14.5 24.1 0.00 0.00 0.00 45 1009.9
20260502191542 13 13 14.5 24.1 0.00 0.00 0.00 48 1010.2
20260502190036 13 9 14.5 25.7 0.00 0.00 0.00 46 1010.4
20260502184540 13 324 22.5 29.0 0.00 0.00 0.00 48 1010.4
20260502183036 13 342 17.7 27.4 0.00 0.00 0.00 49 1010.5
20260502181537 13 331 16.1 25.7 0.00 0.00 0.00 49 1010.5
20260502163049 12 15 22.5 33.8 0.00 0.00 0.00 52 1010.3
20260502161530 11 355 20.9 33.8 0.00 0.00 0.00 53 1010.3
20260502151527 10 14 24.1 35.4 0.00 0.00 0.00 60 1010.2
20260502123011 7 5 17.7 27.4 0.00 0.00 0.00 58 1009.0
20260502121509 8 336 16.1 30.6 0.00 0.00 0.00 56 1009.0
20260502114506 9 19 32.2 48.3 0.00 0.00 0.00 52 1008.6
20260502113004 8 355 19.3 32.2 0.00 0.00 0.00 56 1008.5
20260502111502 10 332 12.9 33.8 0.00 0.00 0.00 50 1008.3
20260502110105 10 28 16.1 32.2 0.00 0.00 0.00 49 1008.3
20260502104558 9 321 9.7 17.7 0.00 0.00 0.00 50 1008.0
20260502103057 10 328 3.2 12.9 0.00 0.00 0.00 49 1007.7
20260502101555 9 261 4.8 19.3 0.00 0.00 0.00 49 1007.5
20260502071526 13 11 9.7 16.1 0.00 0.00 0.00 37 1006.3
20260502070030 13 27 16.1 20.9 0.00 0.00 0.00 36 1006.4
20260502064535 12 20 12.9 16.1 0.00 0.00 0.00 37 1006.4
20260502063025 12 34 16.1 19.3 0.00 0.00 0.00 37 1006.4
20260502061518 12 33 14.5 19.3 0.00 0.00 0.00 36 1006.4
20260502060015 12 58 14.5 17.7 0.00 0.00 0.00 37 1006.4
20260502054514 11 31 11.3 16.1 0.00 0.00 0.00 40 1006.5
20260502053014 11 31 4.8 9.7 0.00 0.00 0.00 41 1006.6
20260502051517 11 37 4.8 8.0 0.00 0.00 0.00 40 1006.6
20260502050016 12 326 8.0 14.5 0.00 0.00 0.00 38 1006.5
20260502044513 12 312 14.5 17.7 0.00 0.00 0.00 36 1006.5
20260502043012 12 299 12.9 20.9 0.00 0.00 0.00 36 1006.4
20260502041512 13 335 11.3 17.7 0.00 0.00 0.00 34 1006.4
20260502040011 12 340 6.4 14.5 0.00 0.00 0.00 35 1006.4
20260502034511 13 5 6.4 14.5 0.00 0.00 0.00 33 1006.2
20260502033014 13 335 12.9 19.3 0.00 0.00 0.00 31 1006.1
20260502031510 14 319 11.3 19.3 0.00 0.00 0.00 30 1006.0
20260502030009 15 304 14.5 20.9 0.00 0.00 0.00 28 1005.8
20260502024515 16 323 11.3 20.9 0.00 0.00 0.00 25 1005.7
20260502023009 16 283 19.3 25.7 0.00 0.00 0.00 24 1005.7
20260502021509 17 277 17.7 22.5 0.00 0.00 0.00 24 1005.6
20260502020008 17 274 14.5 20.9 0.00 0.00 0.00 23 1005.4
20260502014526 18 245 19.3 27.4 0.00 0.00 0.00 21 1005.4